Regional Weather Roundup
Issued by NWS

Home | Current Version | Previous Version | Graphics & Text | Print | Product List | Glossary On
Versions: 1 2 3 4 5 6 7 8 9 10 11 12 13 14 15 16 17 18 19 20 21 22 23 24 25 26 27 28 29 30 31 32 33 34 35 36 37 38 39 40 41 42 43 44 45 46 47 48 49 50
000
ASUS43 KLMK 060010
RWRKY
KENTUCKY REGIONAL WEATHER ROUNDUP
NATIONAL WEATHER SERVICE LOUISVILLE KY
800 PM EDT THU MAY 05 2016

NOTE "FAIR" INDICATES FEW OR NO CLOUDS BELOW 12,000 FEET
WITH NO SIGNIFICANT WEATHER AND/OR OBSTRUCTIONS TO VISIBILITY.

KYZ001>023-026-027-061>063-070>075-060100-
WESTERN AND SOUTH CENTRAL KENTUCKY

CITY           SKY/WX    TMP DP  RH WIND       PRES   REMARKS
PADUCAH        CLOUDY    60  43  53 N10       29.99R
HENDERSON      PTCLDY    61  45  55 W5        29.95S
OWENSBORO      CLEAR     60  46  59 NW7       29.95S
HOPKINSVILLE   MOCLDY    56  44  64 NW7       29.96S
BOWLING GREEN  CLOUDY    56  44  64 NW3       29.94S
GLASGOW        CLOUDY    53  43  68 NW3       29.93S
$$

KYZ024-025-028>034-038-045-046-053-060100-
NORTH CENTRAL KENTUCKY

CITY           SKY/WX    TMP DP  RH WIND       PRES   REMARKS
LOUISVILLE/SDF PTCLDY    59  45  59 NW9       29.90S
LOUISVILLE/LOU MOCLDY    59  46  62 NW8       29.90S
FORT KNOX      PTCLDY    55  46  70 W6        29.90S
$$

KYZ035>037-039>044-047>052-055>060-089>105-060100-
NORTHEAST KENTUCKY

CITY           SKY/WX    TMP DP  RH WIND       PRES   REMARKS
LEXINGTON      CLOUDY    51  44  77 NW7       29.89R
COVINGTON      PTCLDY    55  47  74 W8        29.86S
FRANKFORT      CLOUDY    52  45  77 CALM      29.88S
$$

KYZ054-064>069-076>088-106>120-060100-
SOUTHEAST KENTUCKY

CITY           SKY/WX    TMP DP  RH WIND       PRES   REMARKS
JACKSON        CLOUDY    50  41  71 NW7       29.84R
LONDON         CLOUDY    51  39  63 NW6       29.86S
SOMERSET       CLOUDY    52  39  62 NW8       29.90S
MIDDLESBORO    CLOUDY    51  40  65 NW8       29.86R
MONTICELLO     MOCLDY    52  42  69 NW10      29.91S
$$




USA.gov is the U.S. government's official web portal to all federal, state and local government web resources and services.